WX4MMM Weather Reports


Display with metric or nautical units.
time (UTC)temp
F
wind
direction
speed
MPH
gust
MPH
rain 1hr
in
rain 24hr
in
rain mn
in
humidity
%
barometer
mb
20260901125003 77 347 1.0 1.0 0.00 0.00 0.00 88 1018.5
20260901124503 77 144 1.0 2.0 0.00 0.00 0.00 88 1018.5
20260901124003 76 151 1.0 2.0 0.00 0.00 0.00 90 1018.4
20260901123503 76 150 1.0 2.0 0.00 0.00 0.00 90 1018.4
20260901123003 75 146 0.0 1.0 0.00 0.00 0.00 92 1018.4
20260901122503 75 61 1.0 1.0 0.00 0.00 0.00 94 1018.4
20260901122003 74 153 1.0 2.0 0.00 0.00 0.00 96 1018.4
20260901121503 74 218 0.0 1.0 0.00 0.00 0.00 98 1018.4
20260901121003 73 91 0.0 0.0 0.00 0.00 0.00 98 1018.4
20260901120502 73 91 0.0 0.0 0.00 0.00 0.00 98 1018.4
20260901120003 73 91 0.0 0.0 0.00 0.00 0.00 98 1018.3
20260901115503 73 86 0.0 0.0 0.00 0.00 0.00 98 1018.2
20260901114503 72 107 0.0 1.0 0.00 0.00 0.00 98 1018.0
20260901114005 72 138 0.0 1.0 0.00 0.00 0.00 98 1018.0
20260901113505 72 75 0.0 1.0 0.00 0.00 0.00 98 1017.9
20260901113003 72 18 0.0 0.0 0.00 0.00 0.00 98 1017.9
20260901112503 72 18 0.0 1.0 0.00 0.00 0.00 98 1017.9
20260901112003 72 133 0.0 0.0 0.00 0.00 0.00 98 1017.9
20260901111003 72 19 0.0 1.0 0.00 0.00 0.00 98 1017.9
20260901110503 72 28 0.0 0.0 0.00 0.00 0.00 98 1017.9
20260901110004 72 159 0.0 1.0 0.00 0.00 0.00 98 1017.8
20260901105504 72 155 0.0 1.0 0.00 0.00 0.00 98 1017.8
20260901105003 72 56 0.0 0.0 0.00 0.00 0.00 97 1017.8
20260901104504 72 56 0.0 0.0 0.00 0.00 0.00 97 1017.7
20260901104003 72 56 0.0 1.0 0.00 0.00 0.00 97 1017.7
20260901103505 72 112 0.0 0.0 0.00 0.00 0.00 97 1017.6
20260901103003 72 112 0.0 0.0 0.00 0.00 0.00 97 1017.6
20260901102503 72 112 0.0 1.0 0.00 0.00 0.00 97 1017.5
20260901102004 73 187 0.0 0.0 0.00 0.00 0.00 97 1017.5
20260901101503 73 47 0.0 0.0 0.00 0.00 0.00 97 1017.5
20260901101003 73 47 0.0 1.0 0.00 0.00 0.00 97 1017.5
20260901100503 72 36 0.0 1.0 0.00 0.00 0.00 97 1017.5
20260901095503 73 56 0.0 0.0 0.00 0.00 0.00 97 1017.5
20260901095003 73 269 0.0 1.0 0.00 0.00 0.00 96 1017.5
20260901094504 73 269 0.0 1.0 0.00 0.00 0.00 96 1017.4
20260901094003 73 329 0.0 1.0 0.00 0.00 0.00 96 1017.4
20260901093503 73 258 0.0 1.0 0.00 0.00 0.00 96 1017.4
20260901093003 73 192 0.0 1.0 0.00 0.00 0.00 96 1017.4
20260901092504 73 195 0.0 1.0 0.00 0.00 0.00 96 1017.4
20260901092005 73 122 0.0 0.0 0.00 0.00 0.00 95 1017.5
20260901091503 73 106 0.0 0.0 0.00 0.00 0.00 95 1017.5
20260901090503 73 106 0.0 1.0 0.00 0.00 0.00 95 1017.5
20260901090003 73 92 0.0 1.0 0.00 0.00 0.00 95 1017.5
20260901085503 73 110 0.0 0.0 0.00 0.00 0.00 95 1017.5
20260901085003 73 110 0.0 0.0 0.00 0.00 0.00 95 1017.5
20260901084503 73 193 0.0 0.0 0.00 0.00 0.00 94 1017.5
20260901084003 73 193 0.0 0.0 0.00 0.00 0.00 94 1017.6
20260901083503 73 193 0.0 0.0 0.00 0.00 0.00 94 1017.7
20260901083003 73 193 0.0 0.0 0.00 0.00 0.00 94 1017.7
20260901082503 74 193 0.0 0.0 0.00 0.00 0.00 94 1017.7
20260901082004 74 193 0.0 0.0 0.00 0.00 0.00 93 1017.7
20260901081504 74 193 0.0 0.0 0.00 0.00 0.00 93 1017.8
20260901081004 74 193 0.0 0.0 0.00 0.00 0.00 93 1017.8
20260901080004 74 320 0.0 0.0 0.00 0.00 0.00 94 1017.7
20260901075503 74 320 0.0 0.0 0.00 0.00 0.00 93 1017.8
20260901074004 74 303 0.0 0.0 0.00 0.00 0.00 93 1017.8
20260901073504 74 303 0.0 0.0 0.00 0.00 0.00 93 1017.8
20260901073003 74 303 0.0 1.0 0.00 0.00 0.00 93 1017.9
20260901072503 74 303 0.0 1.0 0.00 0.00 0.00 92 1017.9
20260901072003 74 268 0.0 0.0 0.00 0.00 0.00 92 1017.9
20260901071503 74 256 0.0 0.0 0.00 0.00 0.00 92 1017.9
20260901071003 74 253 0.0 0.0 0.00 0.00 0.00 92 1018.0
20260901070503 75 253 0.0 1.0 0.00 0.00 0.00 92 1018.0
20260901070005 75 294 0.0 0.0 0.00 0.00 0.00 91 1018.1
20260901065504 75 294 0.0 0.0 0.00 0.00 0.00 92 1018.1
20260901064503 75 294 0.0 0.0 0.00 0.00 0.00 92 1018.1
20260901063503 75 300 0.0 1.0 0.00 0.00 0.00 92 1018.2
20260901063004 74 293 0.0 1.0 0.00 0.00 0.00 92 1018.2
20260901062503 74 302 0.0 0.0 0.00 0.00 0.00 92 1018.2
20260901062004 75 295 0.0 1.0 0.00 0.00 0.00 92 1018.2
20260901061503 75 278 0.0 0.0 0.00 0.00 0.00 92 1018.3
20260901061004 75 267 0.0 0.0 0.00 0.00 0.00 91 1018.3
20260901060504 75 190 0.0 0.0 0.00 0.00 0.00 92 1018.3
20260901060002 75 190 0.0 0.0 0.00 0.00 0.00 91 1018.4
20260901055504 75 136 0.0 0.0 0.00 0.00 0.00 92 1018.4
20260901055003 75 136 0.0 0.0 0.00 0.00 0.00 92 1018.4
20260901054503 75 352 0.0 0.0 0.00 0.00 0.00 92 1018.5
20260901054003 74 338 0.0 1.0 0.00 0.00 0.00 92 1018.5
20260901053503 74 282 0.0 0.0 0.00 0.00 0.00 92 1018.5
20260901052503 74 282 0.0 0.0 0.00 0.00 0.00 93 1018.5
20260901052004 74 282 0.0 0.0 0.00 0.00 0.00 93 1018.5
20260901051503 75 282 0.0 0.0 0.00 0.00 0.00 93 1018.5
20260901051004 75 282 0.0 0.0 0.00 0.00 0.00 93 1018.5
20260901050503 75 282 0.0 0.0 0.00 0.00 0.00 93 1018.5
20260901050003 75 282 0.0 0.0 0.00 0.00 0.00 92 1018.5
20260901045504 75 282 0.0 0.0 0.00 0.00 0.00 93 1018.4
20260901045004 75 282 0.0 0.0 0.00 0.00 0.00 92 1018.4
20260901044505 75 282 0.0 0.0 0.00 0.00 0.00 92 1018.4
20260901044003 75 282 0.0 0.0 0.00 0.00 0.00 92 1018.4
20260901043003 75 282 0.0 0.0 0.00 0.00 0.00 92 1018.4
20260901042503 75 282 0.0 0.0 0.00 0.00 0.00 91 1018.4
20260901041503 75 111 0.0 0.0 0.00 0.00 0.00 93 1018.3
20260901041005 75 177 0.0 0.0 0.00 0.00 0.00 93 1018.3
20260901040503 75 171 0.0 0.0 0.00 0.00 0.00 93 1018.3
20260901040003 75 335 0.0 0.0 0.00 0.00 0.00 93 1018.3
20260901035504 75 335 0.0 0.0 0.00 0.00 0.00 94 1018.3
20260901034503 74 65 0.0 0.0 0.00 0.00 0.00 92 1018.2
20260901034003 74 65 0.0 1.0 0.00 0.00 0.00 92 1018.2
20260901033003 75 320 0.0 0.0 0.00 0.00 0.00 92 1018.2
20260901032504 75 320 0.0 1.0 0.00 0.00 0.00 91 1018.2
20260901031503 75 346 0.0 0.0 0.00 0.00 0.00 93 1018.0
20260901031003 75 258 0.0 1.0 0.00 0.00 0.00 93 1018.0
20260901030503 75 202 0.0 1.0 0.00 0.00 0.00 94 1018.0
20260901030004 75 286 0.0 0.0 0.00 0.00 0.00 93 1018.1
20260901025504 75 286 0.0 0.0 0.00 0.00 0.00 93 1018.1
20260901025003 75 283 0.0 0.0 0.00 0.00 0.00 93 1018.1
20260901024003 75 283 0.0 0.0 0.00 0.00 0.00 92 1018.1
20260901023503 75 90 0.0 0.0 0.00 0.00 0.00 92 1018.0
20260901023003 75 28 0.0 0.0 0.00 0.00 0.00 94 1018.0
20260901022503 76 28 0.0 0.0 0.00 0.00 0.00 94 1018.0
20260901022003 76 28 0.0 0.0 0.00 0.00 0.00 94 1018.0
20260901021503 76 279 0.0 0.0 0.00 0.00 0.00 94 1018.0
20260901020504 76 222 0.0 0.0 0.00 0.00 0.00 93 1018.0
20260901020003 76 166 0.0 0.0 0.00 0.00 0.00 93 1018.0
20260901015505 76 318 0.0 0.0 0.00 0.00 0.00 92 1018.0
20260901015003 76 188 0.0 1.0 0.00 0.00 0.00 92 1018.0
20260901014503 76 308 0.0 0.0 0.00 0.00 0.00 92 1018.0
20260901014004 77 308 0.0 1.0 0.00 0.00 0.00 92 1018.0
20260901013503 77 312 0.0 0.0 0.00 0.00 0.00 92 1018.0
20260901012503 77 317 0.0 0.0 0.00 0.00 0.00 92 1017.9
20260901012004 77 346 0.0 0.0 0.00 0.00 0.00 92 1017.8
20260901011505 77 346 0.0 0.0 0.00 0.00 0.00 92 1017.8
20260901011005 77 346 0.0 0.0 0.00 0.00 0.00 91 1017.7
20260901010506 78 346 0.0 0.0 0.00 0.00 0.00 91 1017.6
20260901010004 78 346 0.0 0.0 0.00 0.00 0.00 91 1017.5
20260901005505 78 130 0.0 1.0 0.00 0.00 0.00 90 1017.5
20260901005003 78 331 0.0 0.0 0.00 0.00 0.00 90 1017.5
20260901004504 78 337 0.0 1.0 0.00 0.00 0.00 90 1017.4
20260901004003 79 265 0.0 0.0 0.00 0.00 0.00 89 1017.4
20260901003503 79 19 0.0 1.0 0.00 0.00 0.00 89 1017.3
20260901003004 79 296 1.0 1.0 0.00 0.00 0.00 88 1017.3
20260901002503 79 268 0.0 1.0 0.00 0.00 0.00 88 1017.2
20260901002004 79 14 0.0 1.0 0.00 0.00 0.00 88 1017.2
20260901001503 79 112 0.0 1.0 0.00 0.00 0.00 88 1017.2
20260901000505 80 240 0.0 1.0 0.00 0.00 0.00 85 1017.1
20260901000004 81 315 0.0 1.0 0.00 0.00 0.00 84 1017.1
20260831235503 81 167 0.0 1.0 0.00 0.00 0.00 81 1017.1
20260831234503 82 310 0.0 1.0 0.00 0.00 0.00 79 1017.1
20260831234004 83 257 0.0 1.0 0.00 0.00 0.00 78 1017.1
20260831233503 83 219 0.0 1.0 0.00 0.00 0.00 77 1017.1
20260831233004 83 290 0.0 1.0 0.00 0.00 0.00 75 1017.1
20260831232504 84 271 0.0 1.0 0.00 0.00 0.00 74 1017.0
20260831232004 85 207 0.0 1.0 0.00 0.00 0.00 71 1017.0
20260831231504 85 338 0.0 1.0 0.00 0.00 0.00 71 1017.0
20260831231003 85 0 0.0 1.0 0.00 0.00 0.00 70 1017.0
20260831230504 86 327 0.0 1.0 0.00 0.00 0.00 69 1016.9
20260831230004 86 332 0.0 1.0 0.00 0.00 0.00 68 1016.9
20260831225505 87 226 0.0 1.0 0.00 0.00 0.00 67 1017.0
20260831225004 87 287 0.0 1.0 0.00 0.00 0.00 65 1017.0
20260831224004 88 358 0.0 1.0 0.00 0.00 0.00 65 1016.9
20260831223504 88 319 0.0 1.0 0.00 0.00 0.00 59 1017.0
20260831223003 88 294 0.0 1.0 0.00 0.00 0.00 60 1017.0
20260831222505 88 74 0.0 1.0 0.00 0.00 0.00 58 1017.0
20260831221504 89 303 0.0 1.0 0.00 0.00 0.00 57 1016.9
20260831220504 89 314 0.0 1.0 0.00 0.00 0.00 54 1016.9
20260831220008 89 339 0.0 1.0 0.00 0.00 0.00 57 1016.9
20260831215504 89 307 0.0 1.0 0.00 0.00 0.00 57 1016.9
20260831215004 90 351 0.0 1.0 0.00 0.00 0.00 59 1017.0
20260831214503 90 231 0.0 1.0 0.00 0.00 0.00 60 1017.0
20260831214003 90 280 0.0 1.0 0.00 0.00 0.00 57 1017.0
20260831213504 90 309 0.0 1.0 0.00 0.00 0.00 58 1017.1
20260831213005 90 312 0.0 1.0 0.00 0.00 0.00 56 1017.1
20260831212503 90 285 0.0 1.0 0.00 0.00 0.00 58 1017.1
20260831211504 91 301 1.0 1.0 0.00 0.00 0.00 53 1017.2
20260831211005 91 285 1.0 2.0 0.00 0.00 0.00 50 1017.2
20260831210504 91 293 0.0 1.0 0.00 0.00 0.00 52 1017.2
20260831205504 91 42 1.0 1.0 0.00 0.00 0.00 50 1017.3
20260831205004 92 312 1.0 1.0 0.00 0.00 0.00 52 1017.3
20260831204503 92 91 0.0 1.0 0.00 0.00 0.00 55 1017.4
20260831204004 93 312 0.0 1.0 0.00 0.00 0.00 53 1017.3
20260831203504 93 31 0.0 2.0 0.00 0.00 0.00 50 1017.4
20260831203003 93 344 0.0 2.0 0.00 0.00 0.00 48 1017.4
20260831202504 93 315 1.0 1.0 0.00 0.00 0.00 49 1017.4
20260831202003 92 50 0.0 2.0 0.00 0.00 0.00 53 1017.4
20260831201504 92 1 1.0 2.0 0.00 0.00 0.00 49 1017.4
20260831201004 92 286 1.0 3.0 0.00 0.00 0.00 51 1017.4
20260831200004 93 290 1.0 2.0 0.00 0.00 0.00 49 1017.4
20260831195504 92 122 1.0 3.0 0.00 0.00 0.00 49 1017.4
20260831195005 92 312 0.0 2.0 0.00 0.00 0.00 50 1017.4
20260831194504 92 102 1.0 3.0 0.00 0.00 0.00 50 1017.5
20260831194003 93 353 0.0 2.0 0.00 0.00 0.00 48 1017.5
20260831193504 93 205 0.0 3.0 0.00 0.00 0.00 49 1017.6
20260831193003 92 5 1.0 2.0 0.00 0.00 0.00 49 1017.6
20260831192504 92 318 0.0 2.0 0.00 0.00 0.00 50 1017.6
20260831192004 93 174 0.0 2.0 0.00 0.00 0.00 46 1017.7
20260831191503 92 225 0.0 3.0 0.00 0.00 0.00 47 1017.8
20260831191003 92 110 1.0 2.0 0.00 0.00 0.00 53 1017.9
20260831190504 92 335 1.0 2.0 0.00 0.00 0.00 50 1018.0
20260831190003 92 183 1.0 2.0 0.00 0.00 0.00 48 1018.0
20260831185004 90 307 1.0 1.0 0.00 0.00 0.00 55 1018.1
20260831184503 90 338 2.0 2.0 0.00 0.00 0.00 53 1018.2
20260831183505 91 131 0.0 2.0 0.00 0.00 0.00 54 1018.4
20260831183004 91 334 1.0 3.0 0.00 0.00 0.00 52 1018.3
20260831182504 92 242 1.0 2.0 0.00 0.00 0.00 51 1018.4
20260831182003 92 344 1.0 3.0 0.00 0.00 0.00 50 1018.4
20260831181503 91 171 1.0 2.0 0.00 0.00 0.00 52 1018.4
20260831180504 92 191 0.0 3.0 0.00 0.00 0.00 54 1018.5
20260831180003 92 199 0.0 3.0 0.00 0.00 0.00 52 1018.5
20260831175004 92 204 1.0 3.0 0.00 0.00 0.00 52 1018.5
20260831174004 92 280 1.0 2.0 0.00 0.00 0.00 52 1018.6
20260831173504 91 18 0.0 2.0 0.00 0.00 0.00 54 1018.7
20260831173003 91 270 0.0 2.0 0.00 0.00 0.00 54 1018.8
20260831172503 91 36 1.0 2.0 0.00 0.00 0.00 56 1018.8
20260831172004 91 342 1.0 2.0 0.00 0.00 0.00 54 1018.8
20260831171503 91 316 1.0 2.0 0.00 0.00 0.00 52 1018.8
20260831170503 90 10 1.0 3.0 0.00 0.00 0.00 55 1018.9
20260831170003 89 65 1.0 3.0 0.00 0.00 0.00 58 1018.9
20260831165504 90 147 0.0 2.0 0.00 0.00 0.00 57 1019.0
20260831165004 89 194 0.0 2.0 0.00 0.00 0.00 61 1019.0
20260831164503 89 5 1.0 2.0 0.00 0.00 0.00 58 1019.0
20260831164004 88 19 1.0 2.0 0.00 0.00 0.00 63 1019.0
20260831163504 88 128 0.0 3.0 0.00 0.00 0.00 61 1019.0
20260831163004 88 187 1.0 3.0 0.00 0.00 0.00 61 1019.0
20260831162504 89 351 0.0 2.0 0.00 0.00 0.00 63 1019.2
20260831162003 89 306 0.0 2.0 0.00 0.00 0.00 64 1019.3
20260831161503 88 357 1.0 2.0 0.00 0.00 0.00 63 1019.3
20260831161004 88 37 0.0 2.0 0.00 0.00 0.00 67 1019.3
20260831160503 87 350 1.0 3.0 0.00 0.00 0.00 66 1019.3
20260831160003 87 191 0.0 2.0 0.00 0.00 0.00 67 1019.4
20260831155503 86 94 1.0 2.0 0.00 0.00 0.00 65 1019.4
20260831155003 86 292 1.0 3.0 0.00 0.00 0.00 68 1019.4
20260831154004 87 112 1.0 3.0 0.00 0.00 0.00 70 1019.5
20260831153503 86 134 0.0 3.0 0.00 0.00 0.00 69 1019.6
20260831153003 86 343 1.0 2.0 0.00 0.00 0.00 72 1019.6
20260831151503 84 164 1.0 3.0 0.00 0.00 0.00 70 1019.7
20260831151005 84 129 2.0 3.0 0.00 0.00 0.00 74 1019.7
20260831150505 84 13 1.0 3.0 0.00 0.00 0.00 76 1019.7
20260831150003 84 176 1.0 3.0 0.00 0.00 0.00 74 1019.6
20260831145504 83 155 0.0 3.0 0.00 0.00 0.00 76 1019.7
20260831144004 82 52 2.0 3.0 0.00 0.00 0.00 76 1019.7
20260831143504 82 329 1.0 2.0 0.00 0.00 0.00 78 1019.7
20260831143004 81 51 1.0 3.0 0.00 0.00 0.00 81 1019.6
20260831142503 81 132 2.0 3.0 0.00 0.00 0.00 79 1019.6
20260831142004 81 1 1.0 2.0 0.00 0.00 0.00 80 1019.5
20260831141504 80 131 1.0 3.0 0.00 0.00 0.00 80 1019.5
20260831141004 80 95 1.0 2.0 0.00 0.00 0.00 82 1019.6
20260831140503 79 47 2.0 5.0 0.00 0.00 0.00 82 1019.5
20260831140004 79 85 1.0 3.0 0.00 0.00 0.00 85 1019.5
20260831135504 78 57 1.0 3.0 0.00 0.00 0.00 86 1019.5
20260831135004 77 3 2.0 5.0 0.00 0.00 0.00 88 1019.5
20260831134503 77 130 1.0 3.0 0.00 0.00 0.00 89 1019.5
20260831134004 76 38 1.0 1.0 0.00 0.00 0.00 92 1019.5
20260831133504 76 332 1.0 2.0 0.00 0.00 0.00 92 1019.5
20260831133004 75 136 1.0 2.0 0.00 0.00 0.00 93 1019.5
20260831132503 74 145 2.0 2.0 0.00 0.00 0.00 97 1019.5
20260831132004 74 140 2.0 2.0 0.00 0.00 0.00 99 1019.5
20260831131504 74 46 0.0 1.0 0.00 0.00 0.00 100 1019.5
20260831130504 73 113 1.0 2.0 0.00 0.00 0.00 100 1019.5
20260831130004 73 173 2.0 2.0 0.00 0.00 0.00 100 1019.6
20260831125503 72 95 1.0 2.0 0.00 0.00 0.00 100 1019.6